Startseite
Über Mich
AHP4
Galerie
Sehschlangen
Tourenbuch
Bookmarks
Elektronik
Bewertung
Geschichten
[Tagesmessung] [Jahreswerte] [Information]

Messwerte vom 01.10.2022

Die letzten Messwerte von 23:58:45 Uhr:
KategorieMesswert
Temperatur [°C]10
Luftdruck [mBar]995
Sonneneinstrahlung0
Wind [km/h]0 aus Süd
Niederschlag [l/m²]0
rel.Luftfeucht.96.6%
CO2 [ppm]477

Diagramme
Messwerte vom 01.10.2022
Tagesaggregation
KategorieMinimumMaximumSchnittSumme
Temperatur [°C]81710.6208
Luftdruck [mBar]986995989.8500
Sonneneinstrahlung24685.3979
Wind [km/h]18
rF [%]73.296.690.54
Niederschlag [l/m²]9.27
CO2 [ppm]466822630.4
Einordnung alsVegetationstag

Messungen an benachbarten Tagen: Zur Jahresaggregation 2022
Tabelle aller Messwerte
UhrzeitTemperatur [°C]Luftdruck [mBar]SonneWind [km/h]RichtungRegen [l/m²]rF [%]CO2 [ppm]
00:01:47 9 994 0 0 SO 0 82.4 753
00:04:45 9 994 0 5 S 0 82.6 754
00:07:48 9 993 0 4 S 0 82.8 739
00:10:50 9 993 0 2 SO 0 82.8 741
00:13:47 9 994 0 2 S 0 83.2 748
00:16:45 9 994 0 4 SW 0 83.2 758
00:19:47 9 994 0 4 SO 0 83.2 777
00:22:47 9 994 0 2 SO 0 83.2 779
00:25:45 9 994 0 3 SO 0 83.4 775
00:28:47 9 994 0 3 SO 0 83.4 773
00:31:46 9 993 0 3 SO 0 83.6 775
00:34:47 9 994 0 4 SO 0 83.6 771
00:37:46 9 994 0 3 SO 0 83.6 776
00:40:48 9 993 0 4 SW 0 83.5 776
00:43:46 9 994 0 2 S 0 83.6 779
00:46:46 9 994 0 7 SO 0 83.7 785
00:49:45 9 993 0 6 S 0 83.7 784
00:52:46 9 993 0 2 SO 0 83.6 787
00:55:49 9 994 0 1 SO 0 83.9 782
00:58:49 9 993 0 8 SO 0 83.8 784
01:01:47 9 993 0 4 SO 0 83.7 782
01:04:46 9 993 0 7 SO 0 83.7 789
01:07:45 9 993 0 2 O 0 83.8 798
01:10:47 9 992 0 2 S 0 83.5 803
01:13:47 9 993 0 2 SO 0 83.5 807
01:16:47 9 993 0 1 SO 0 83.5 803
01:19:46 9 993 0 0 SO 0 83.7 816
01:22:47 8 993 0 1 SW 0 83.8 822
01:25:49 8 994 0 2 S 0 84.5 708
01:28:45 8 992 0 4 S 0 85 705
01:31:47 8 993 0 5 S 0 86 705
01:34:46 8 993 0 2 SO 0 86.2 702
01:37:47 8 993 0 1 SO 0 86.5 705
01:40:46 8 993 0 5 SO 0 86.4 711
01:43:46 8 993 0 2 S 0 86.3 712
01:46:45 8 993 0 2 S 0 86.4 708
01:49:47 8 993 0 2 S 0 86.3 694
01:52:46 8 992 0 3 S 0 86.3 699
01:55:47 8 993 0 3 SO 0 86.1 700
01:58:47 8 993 0 7 S 0 86.4 698
02:01:49 8 992 0 1 SW 0 86.5 696
02:04:47 8 993 0 2 0 86.5 702
02:07:45 8 993 0 4 0 86.4 711
02:10:47 8 992 0 1 S 0 86.1 710
02:13:46 8 992 0 1 SO 0 85.6 700
02:16:45 8 992 0 3 S 0 85.7 697
02:19:45 8 993 0 3 S 0 85.6 699
02:22:46 8 991 0 3 S 0 85.8 702
02:25:44 8 993 0 2 S 0 86.3 713
02:28:48 8 992 0 1 SW 0 86.2 711
02:31:48 8 992 0 4 S 0 86.2 708
02:34:45 8 992 0 4 S 0 86.5 699
02:37:47 8 993 0 4 SO 0 86.5 702
02:40:47 9 992 0 7 SO 0 86.4 700
02:43:46 9 992 0 3 S 0 86.3 706
02:46:49 9 992 0 3 SO 0 86 697
02:49:49 9 992 0 0 SO 0 85.8 699
02:52:50 8 992 0 0 SO 0 86.1 697
02:55:46 8 992 0 0 O 0 86.4 690
02:58:48 8 992 0 2 O 0 86.6 687
03:01:49 8 992 0 3 SO 0 87 689
03:04:46 8 992 0 3 S 0 87.6 695
03:07:47 8 992 0 6 S 0 87.8 695
03:10:49 9 992 0 5 S 0 87.6 688
03:13:46 9 992 0 3 S 0 87.1 685
03:16:45 9 992 0 2 O 0 86.6 687
03:19:46 9 992 0 4 S 0 85.9 685
03:22:46 9 992 0 2 S 0 85.3 689
03:25:46 9 992 0 4 S 0 84.8 690
03:28:49 9 992 0 3 SO 0 84.6 690
03:31:45 9 992 0 3 S 0 84.3 687
03:34:47 9 991 0 3 S 0 84.1 686
03:37:45 9 992 0 6 S 0 84.1 685
03:40:46 9 991 0 6 SO 0 84.2 685
03:43:47 9 991 0 6 S 0 84.3 682
03:46:47 9 991 0 11 S 0 84.3 674
03:49:46 9 992 0 2 S 0 84.2 676
03:52:46 9 992 0 6 S 0 84.1 674
03:55:47 9 991 0 4 SO 0 83.8 679
03:58:48 10 991 0 5 SO 0 83.7 682
04:01:47 10 991 0 2 S 0 83.6 688
04:04:44 10 991 0 5 S 0 83.6 691
04:07:47 10 991 0 5 S 0 83.5 691
04:10:48 10 991 0 6 NO 0 83.5 689
04:13:48 10 991 0 5 S 0 83.5 693
04:16:47 9 991 0 10 SO 0 83.5 693
04:19:48 9 992 0 3 SO 0 83.7 700
04:22:46 9 991 0 4 S 0 83.8 702
04:25:46 9 991 0 4 S 0 83.9 695
04:28:47 9 991 0 2 S 0 84.1 700
04:31:48 9 991 0 3 SO 0 84.4 706
04:34:47 9 991 0 6 SO 0 84.8 700
04:37:44 9 991 0 6 S 0 85.1 700
04:40:49 9 991 0 1 SW 0 85.2 703
04:43:49 9 991 0 0 SO 0 85.7 695
04:46:45 9 991 0 3 0 85.7 691
04:49:48 9 991 0 4 W 0 85.7 688
04:52:49 9 991 0 5 S 0 86.1 695
04:55:46 9 991 0 6 S 0 86.1 690
04:58:46 9 991 0 5 SW 0 86.1 688
05:01:45 9 991 0 5 O 0 85.7 697
05:04:47 9 990 0 7 S 0 85.2 706
05:07:46 9 991 0 8 SO 0 84.9 700
05:10:48 9 991 0 10 SW 0 84.7 694
05:13:45 10 991 0 6 S 0 84.4 690
05:16:47 10 991 0 3 SW 0 84.3 687
05:19:47 10 991 0 7 SO 0 84.3 687
05:22:46 10 990 0 15 S 0 84.2 684
05:25:46 10 990 0 4 S 0 84.3 679
05:28:46 10 991 0 4 O 0 84.2 688
05:31:48 10 990 0 7 SO 0 84.4 682
05:34:45 10 991 0 8 S 0 84.5 688
05:37:45 10 990 0 4 S 0 84.4 676
05:40:47 10 991 0 3 S 0 84.3 673
05:43:46 10 991 0 3 SW 0 84.2 673
05:46:45 10 990 0 5 S 0 84.3 674
05:49:48 10 990 0 8 S 0 84.3 682
05:52:45 10 990 0 5 S 0 84.3 681
05:55:47 10 990 0 10 S 0 84.2 682
05:58:47 10 991 0 6 SW 0 84.1 685
06:01:47 10 990 0 3 SO 0 84.1 688
06:04:47 10 989 0 5 S 0 84.2 693
06:07:47 10 990 0 5 S 0 84.3 683
06:10:47 10 990 0 8 S 0 84.4 677
06:13:47 10 990 0 6 SO 0 84.5 676
06:16:46 10 990 0 3 S 0 84.4 679
06:19:47 10 990 0 9 SO 0 84.5 679
06:22:45 10 990 0 9 S 0 84.7 677
06:25:48 10 990 0 6 SW 0 84.7 682
06:28:46 10 990 0 4 S 0 84.7 673
06:31:47 10 990 0 10 S 0 84.8 670
06:34:45 10 990 0 3 SO 0 84.8 673
06:37:45 10 990 0 2 O 0 84.7 679
06:40:48 10 989 0 4 O 0 84.7 682
06:43:46 10 990 0 7 S 0 84.7 681
06:46:46 10 990 0 6 S 0 84.7 677
06:49:46 10 989 0 6 SO 0 84.6 675
06:52:45 10 989 0 1 S 0 84.3 672
06:55:47 10 990 0 4 SO 0 84.2 665
06:58:47 10 990 0 3 S 0 84 673
07:01:47 10 989 0 11 SO 0 84 672
07:04:47 10 990 3 6 SO 0 83.9 687
07:07:46 10 989 5 7 S 0 83.8 682
07:10:46 10 989 7 6 SO 0 83.7 676
07:13:48 10 989 10 6 S 0 83.7 671
07:16:47 10 989 13 14 SW 0 83.6 667
07:19:46 10 989 16 7 S 0 83.4 670
07:22:47 10 990 19 5 S 0 83.2 676
07:25:49 10 990 22 5 SO 0 83.3 682
07:28:49 10 988 25 5 SO 0 83.5 679
07:31:57 10 990 30 9 SW 0 83.6 680
07:34:45 10 989 34 9 S 0 83.7 679
07:37:48 10 989 36 4 S 0 83.8 671
07:40:49 10 989 39 5 SO 0 84.1 674
07:43:45 10 989 44 3 S 0 84.6 673
07:46:47 10 989 47 3 SO 0 85.2 674
07:49:48 10 989 52 7 SO 0 86.2 669
07:52:48 10 989 60 4 SO 0 87.2 669
07:55:48 10 988 71 8 SW 0 88.4 674
07:58:45 10 989 80 6 S 0 89.7 670
08:01:46 9 989 82 3 0 90.6 682
08:04:48 9 988 86 11 S 0.2575 91.8 689
08:07:52 9 988 99 6 S 0 92.6 696
08:10:48 9 988 102 7 S 0 93 694
08:13:48 9 988 100 7 S 0 93.5 707
08:16:49 9 988 102 6 SO 0.2575 93.8 702
08:19:46 9 988 97 2 S 0 94.3 705
08:22:46 9 988 99 5 S 0 94.8 696
08:25:47 9 988 97 9 S 0 95.4 688
08:28:49 9 988 112 4 SO 0 96.2 680
08:31:46 9 988 113 4 S 0.2575 96.5 550
08:34:48 9 988 109 5 S 0 96.3 517
08:37:47 9 988 111 3 SO 0.2575 96.6 550
08:40:48 9 988 111 3 O 0 96.6 592
08:43:47 9 988 120 8 O 0.2575 96.6 607
08:46:48 9 988 113 4 SO 0.2575 96.6 609
08:49:48 9 988 111 4 S 0 96.6 620
08:52:49 9 987 118 3 S 0.2575 96.6 621
08:55:49 9 988 125 2 SO 0.2575 96.6 623
08:58:50 9 988 128 3 SW 0.2575 96.6 633
09:01:50 9 988 130 0 S 0 96.6 633
09:04:48 9 988 136 0 S 0.2575 96.6 626
09:07:49 9 988 132 0 S 0 96.6 623
09:10:48 9 988 135 0 SO 0.2575 96.6 632
09:13:49 9 988 130 0 S 0.2575 96.6 638
09:16:46 9 988 131 0 S 0 96.6 646
09:19:46 9 987 136 0 S 0.2575 96.6 656
09:22:47 9 987 142 0 SO 0.2575 96.6 655
09:25:47 9 987 154 0 S 0 96.6 653
09:28:48 9 987 164 2 W 0 96.6 650
09:31:47 9 987 170 4 S 0.2575 96.6 656
09:34:47 9 988 167 4 S 0 96.6 661
09:37:49 9 987 164 7 SW 0.2575 96.6 671
09:40:50 9 987 162 5 SW 0 96.6 675
09:43:47 9 987 163 7 NO 0.2575 96.6 674
09:46:48 9 987 167 9 S 0 96.6 679
09:49:50 9 987 170 8 SO 0.2575 96.6 685
09:52:49 9 987 170 17 SO 0.2575 96.6 691
09:55:48 9 987 174 0 NO 0 96.6 695
09:58:48 9 987 174 3 0.2575 96.6 686
10:01:47 9 987 170 2 S 0 96.6 679
10:04:48 9 987 164 5 S 0.2575 96.6 682
10:07:49 9 987 160 4 SO 0.2575 96.6 666
10:10:46 9 987 164 4 S 0 96.6 661
10:13:47 9 987 157 9 S 0.2575 96.6 653
10:16:46 9 987 156 6 W 0 96.6 655
10:19:47 9 987 172 7 SW 0.2575 96.6 650
10:22:47 9 987 170 2 S 0 96.6 647
10:25:48 9 988 163 11 S 0 96.6 650
10:28:51 9 987 164 5 SO 0.2575 96.6 656
10:31:45 9 987 161 6 S 0 96.6 661
10:34:53 9 987 162 6 S 0.2575 96.6 665
10:37:48 9 987 175 7 SO 0 96.6 668
10:40:48 9 987 185 7 S 0 96.6 668
10:43:48 9 987 195 2 SW 0 96.6 661
10:46:46 10 987 191 3 S 0.2575 96.6 665
10:49:46 10 987 184 6 S 0 96.6 659
10:52:47 10 987 183 3 W 0 96.6 661
10:55:46 10 987 179 5 SO 0 96.6 667
10:58:46 10 987 178 5 SO 0 96.6 670
11:01:48 10 989 158 5 SW 0 96.6 668
11:04:48 10 987 169 2 S 0 96.6 659
11:07:49 10 987 158 1 SO 0 96.6 664
11:10:50 10 987 168 6 SW 0 96.6 673
11:13:48 10 987 169 2 SO 0 96.6 674
11:16:47 10 987 176 7 S 0 96.6 679
11:19:49 10 987 188 7 S 0 96.6 683
11:22:48 10 987 184 9 SO 0 96.6 685
11:25:50 10 987 184 3 S 0 96.6 685
11:28:48 10 987 193 0 S 0 96.6 685
11:31:47 10 987 195 3 S 0 96.6 683
11:34:49 10 987 188 10 SW 0 96.6 688
11:37:48 10 987 182 2 O 0 96.6 694
11:40:47 10 987 178 7 SO 0 96.6 694
11:43:46 10 987 181 5 S 0 96.6 690
11:46:49 10 986 187 4 SO 0 96.6 697
11:49:46 11 987 193 0 SO 0 96.6 697
11:52:46 11 987 196 7 S 0 96.6 705
11:55:50 11 987 199 4 S 0 96.6 700
11:58:49 11 986 201 4 SW 0 96.6 696
12:01:49 11 987 206 2 W 0 96.6 699
12:04:49 11 987 208 5 SO 0 96.6 705
12:07:51 11 987 208 8 SW 0 96.6 706
12:10:48 11 987 206 8 SO 0 96.6 713
12:13:49 11 987 194 6 W 0 96.6 720
12:16:50 11 987 209 6 SO 0 96.6 723
12:19:46 11 987 211 3 O 0 96.6 726
12:22:48 11 987 204 5 SW 0 96.6 734
12:25:46 12 987 204 6 O 0 96.6 667
12:28:47 12 987 194 1 W 0 96.6 597
12:31:46 11 987 184 5 SW 0 96.6 559
12:34:49 11 987 200 3 SW 0 96.6 588
12:37:49 11 987 207 5 SO 0 96.6 583
12:40:47 12 987 218 4 W 0 96.6 626
12:43:50 12 987 222 5 S 0 96.6 648
12:46:50 12 987 221 8 SW 0 96.6 655
12:49:47 12 987 221 4 S 0 96.4 661
12:52:48 12 987 222 6 O 0 95.9 671
12:55:47 13 987 218 2 SW 0 95.4 678
12:58:51 13 987 219 18 SO 0 95.2 685
13:01:48 14 987 224 6 SO 0 93.9 686
13:04:49 14 987 218 12 SW 0 92.4 688
13:07:49 14 986 217 8 O 0 90.3 685
13:10:47 14 987 211 9 O 0 90.1 681
13:13:48 14 987 215 10 NW 0 91.3 683
13:16:50 14 987 224 5 NW 0 92.1 686
13:19:32 13 987 216 11 W 0 83.1 686
13:22:49 14 987 222 7 SO 0 89 679
13:25:48 15 987 215 11 SW 0 88.9 690
13:28:48 15 988 223 5 SW 0 88 687
13:31:48 14 987 229 4 SO 0 87.9 690
13:34:48 14 987 227 13 SW 0 87.6 697
13:37:48 14 987 227 5 SO 0 87.7 693
13:40:48 14 987 225 6 W 0 88.5 688
13:43:50 14 987 214 4 NW 0 88.6 685
13:46:49 14 987 227 7 NO 0 89.1 682
13:49:47 14 987 224 4 S 0 89.1 682
13:52:46 14 987 226 4 N 0 89.2 677
13:55:47 15 987 211 1 S 0 88.3 682
13:58:49 14 987 222 4 SW 0 87.7 682
14:01:46 14 987 232 14 N 0 88.5 673
14:04:49 15 987 221 4 NO 0 89.5 670
14:07:48 15 987 228 6 S 0 88.4 665
14:10:50 15 987 223 7 SW 0 87.9 664
14:13:48 15 988 221 8 S 0 87.7 665
14:16:48 15 988 221 11 S 0 88 667
14:19:49 15 987 218 8 SW 0 88.2 667
14:22:48 15 987 212 7 W 0 88.1 665
14:25:50 14 988 216 5 SW 0 88.9 659
14:28:49 14 987 213 4 SO 0 89.6 668
14:31:48 14 987 214 6 O 0 90.2 667
14:34:46 14 987 205 3 W 0 90 663
14:37:48 14 987 223 9 SO 0 89.1 659
14:40:48 14 987 225 4 W 0 89.6 653
14:43:47 15 987 230 4 S 0 90.3 650
14:46:48 15 987 234 11 NO 0 89.5 648
14:49:47 15 987 230 3 S 0 89.3 647
14:52:48 16 987 242 5 W 0 89.6 644
14:55:47 17 988 231 1 SW 0 89.4 638
14:58:48 17 987 230 6 N 0 85 635
15:01:48 17 987 224 3 S 0 84 641
15:04:49 16 987 216 2 SW 0 83.5 647
15:07:48 16 987 223 5 S 0 83.2 650
15:10:50 16 988 215 13 SO 0 84 642
15:13:50 15 987 219 3 SO 0 85.9 629
15:16:47 15 987 220 7 S 0 86.4 623
15:19:50 15 987 229 8 SW 0 87.1 623
15:22:48 15 988 224 8 S 0 87.2 624
15:25:50 15 988 245 1 SO 0 86.7 624
15:28:49 16 988 231 8 NO 0 87.3 623
15:31:51 16 987 234 13 SW 0 85.9 620
15:34:49 17 988 239 3 S 0 85 618
15:37:48 17 987 243 6 SW 0 83 620
15:40:48 17 987 246 5 S 0 81.4 620
15:43:49 17 987 220 13 SO 0 80.9 622
15:46:49 16 987 234 4 SO 0 80.2 624
15:49:31 16 987 246 2 SO 0 73.2 623
15:52:49 17 988 246 5 SW 0 84.2 615
15:55:47 17 987 246 5 SW 0 78.2 612
15:58:47 17 987 244 3 SW 0 77.7 607
16:01:48 17 987 242 9 O 0 78.5 603
16:04:47 17 988 233 7 S 0 79.3 603
16:07:47 17 988 246 4 S 0 79.7 600
16:10:50 17 988 242 2 SO 0 78.6 600
16:13:49 17 988 234 2 S 0 79.3 600
16:16:47 17 987 235 3 W 0 78.8 603
16:19:50 17 988 231 12 O 0 77.4 603
16:22:47 17 988 223 1 O 0 77 599
16:25:47 17 987 232 3 W 0 77.1 600
16:28:50 16 987 223 2 W 0 77.5 600
16:31:48 16 987 227 5 SW 0 78.5 605
16:34:49 16 987 230 11 SO 0 78.5 594
16:37:49 16 987 220 2 S 0 79 586
16:40:48 16 988 209 2 NW 0 80 588
16:43:49 16 987 210 4 W 0 80.1 582
16:46:51 15 988 185 4 SO 0 81.5 585
16:49:49 15 987 199 3 S 0 82 582
16:52:47 15 988 185 2 SW 0 82.8 588
16:55:48 15 987 186 1 SW 0 84 588
16:58:47 15 987 188 5 SW 0 84.2 594
17:01:48 15 988 184 3 S 0 84.6 594
17:04:48 15 988 169 4 N 0 85.1 587
17:07:50 15 988 145 2 SW 0 85.2 585
17:10:48 15 987 88 6 SW 0 85.5 585
17:13:46 15 988 95 4 O 0.2575 88.7 582
17:16:49 14 988 89 5 SO 0.515 92.2 583
17:19:47 13 988 77 1 N 0.2575 92.4 582
17:22:46 13 989 93 4 S 0 92.7 579
17:25:48 12 988 106 6 S 0.2575 94.2 577
17:28:47 12 988 112 6 N 0.2575 95.7 582
17:31:50 11 988 111 5 S 0.2575 96.6 582
17:34:50 11 988 120 4 NO 0.2575 96.6 579
17:37:46 11 988 140 2 NO 0 96.6 581
17:40:46 11 989 155 4 S 0 96.6 579
17:43:48 11 989 156 4 NW 0 96.6 579
17:46:48 11 988 150 2 S 0 96.6 577
17:49:48 11 988 151 3 SW 0 96.6 574
17:52:49 11 989 155 3 SO 0 96.6 576
17:55:48 11 989 166 4 W 0 96.6 576
17:58:47 11 989 184 0 NW 0 96.6 571
18:01:49 11 988 195 3 SW 0 96.6 564
18:04:47 11 988 197 4 SW 0 96.6 538
18:07:48 11 989 198 5 S 0 96.6 539
18:10:49 11 989 201 1 O 0 96.6 544
18:13:48 11 989 201 1 SO 0 96.6 538
18:16:50 11 990 193 1 S 0 96.6 538
18:20:01 11 989 182 2 S 0 96.6 544
18:22:47 11 989 175 1 SO 0 96.6 538
18:25:50 10 989 176 3 W 0 96.6 541
18:28:48 10 989 177 7 W 0 96.6 536
18:31:49 10 990 175 0 W 0 96.6 539
18:34:48 10 989 163 0 SO 0 96.6 542
18:37:48 10 989 149 2 S 0 96.6 544
18:40:48 10 990 139 2 W 0 96.6 539
18:43:48 10 990 129 0 SO 0 96.6 533
18:46:48 10 990 119 1 S 0 96.6 526
18:49:47 10 991 110 2 S 0 96.6 528
18:52:48 10 990 99 0 SO 0 96.6 526
18:55:47 10 990 88 0 NW 0 96.6 530
18:58:45 10 991 76 0 S 0 96.6 538
19:01:46 10 990 63 0 W 0 96.6 536
19:04:46 10 990 50 0 S 0 96.6 530
19:07:49 10 990 38 0 SO 0 96.6 525
19:10:47 10 990 27 0 S 0 96.6 526
19:13:50 10 991 18 0 SW 0 96.6 530
19:16:48 10 991 11 0 SW 0 96.6 527
19:19:46 10 991 7 0 SW 0 96.6 530
19:22:58 9 991 4 0 SO 0 96.6 524
19:25:48 9 991 0 0 SO 0 96.6 530
19:28:45 9 991 0 0 NO 0 96.6 532
19:31:47 9 991 0 0 SW 0 96.6 533
19:34:46 9 990 0 0 W 0 96.6 530
19:37:47 9 991 0 0 SO 0 96.6 531
19:40:45 9 991 0 1 SO 0.2575 96.6 524
19:43:46 9 991 0 1 W 0 96.6 524
19:46:45 10 991 0 0 SO 0 96.6 526
19:49:46 10 991 0 0 SW 0 96.6 530
19:52:47 10 991 0 0 S 0 96.6 529
19:55:44 10 991 0 7 SO 0 96.6 524
19:58:46 10 991 0 0 S 0 96.6 521
20:01:47 10 991 0 0 SO 0 96.6 511
20:04:49 10 991 0 0 NW 0 96.6 519
20:07:48 10 991 0 2 SW 0 96.6 516
20:10:45 10 991 0 0 S 0 96.6 510
20:13:47 10 991 0 0 S 0 96.6 512
20:16:47 10 991 0 2 SO 0 96.6 512
20:19:48 10 991 0 0 SW 0 96.6 515
20:22:49 10 991 0 0 SW 0 96.6 521
20:25:49 10 991 0 0 W 0 96.6 521
20:28:47 10 991 0 6 S 0 96.6 518
20:31:48 10 991 0 0 SO 0 96.6 512
20:34:48 10 992 0 0 SW 0 96.6 509
20:37:47 10 991 0 1 SW 0 96.6 516
20:40:46 10 991 0 2 O 0 96.6 515
20:43:47 10 991 0 0 SW 0 96.6 509
20:46:48 10 992 0 0 S 0 96.6 510
20:49:48 10 992 0 2 S 0 96.6 504
20:52:46 10 991 0 2 SO 0 96.6 500
20:55:47 10 991 0 2 SO 0 96.6 500
20:58:44 10 991 0 3 S 0 96.6 507
21:01:48 10 992 0 1 S 0 96.6 510
21:04:47 10 992 0 3 SO 0 96.6 503
21:07:45 10 992 0 0 S 0 96.6 497
21:10:45 10 992 0 7 O 0 96.6 500
21:13:45 10 992 0 0 S 0 96.6 500
21:16:48 10 992 0 0 SO 0 96.6 504
21:19:46 10 993 0 0 SO 0 96.6 504
21:22:48 10 991 0 0 SO 0 96.6 501
21:25:46 10 992 0 0 S 0 96.6 501
21:28:47 10 992 0 0 S 0 96.6 498
21:31:48 10 992 0 0 SO 0 96.6 500
21:34:47 10 992 0 0 SO 0 96.6 497
21:37:48 10 992 0 0 SO 0 96.6 488
21:40:47 10 993 0 0 SO 0 96.6 492
21:43:45 10 992 0 0 W 0 96.6 498
21:46:45 10 993 0 0 NO 0 96.6 500
21:49:48 10 993 0 0 SW 0 96.6 495
21:52:46 10 993 0 0 SO 0 96.6 494
21:55:47 10 994 0 0 0 96.6 491
21:58:44 10 993 0 0 O 0 96.6 488
22:01:46 10 994 0 0 SO 0 96.6 490
22:04:46 10 994 0 0 S 0 96.6 500
22:07:47 9 993 0 0 W 0 96.6 499
22:10:49 9 992 0 0 NW 0 96.6 491
22:13:49 9 994 0 0 SO 0 96.6 485
22:16:46 9 992 0 5 SO 0 96.6 483
22:19:46 9 994 0 0 W 0 96.6 483
22:22:47 9 994 0 0 O 0 96.6 486
22:25:46 9 994 0 0 NO 0 96.6 486
22:28:46 9 993 0 0 NW 0 96.6 485
22:31:45 9 993 0 0 W 0 96.6 477
22:34:47 9 994 0 0 SO 0 96.6 471
22:37:45 9 994 0 0 W 0 96.6 474
22:40:49 9 994 0 0 W 0 96.6 480
22:43:46 9 994 0 3 W 0 96.6 487
22:46:44 9 994 0 0 SW 0 96.6 491
22:49:45 9 994 0 0 S 0 96.6 485
22:52:47 9 994 0 0 SO 0 96.6 486
22:55:46 9 994 0 0 NO 0 96.6 480
22:58:47 9 994 0 0 O 0 96.6 486
23:01:48 9 994 0 0 SO 0 96.6 487
23:04:47 9 994 0 0 SO 0 96.6 483
23:07:47 9 994 0 0 SO 0 96.6 478
23:10:47 9 994 0 0 S 0 96.6 477
23:13:45 9 994 0 0 S 0 96.6 471
23:16:49 9 995 0 5 SO 0 96.6 468
23:19:47 9 995 0 0 S 0 96.6 477
23:22:45 9 994 0 0 W 0 96.6 480
23:25:48 9 995 0 0 SW 0 96.6 480
23:28:45 9 994 0 1 S 0 96.6 475
23:31:46 10 994 0 0 SW 0 96.6 475
23:34:45 10 995 0 0 W 0 96.6 480
23:37:46 10 994 0 0 0 96.6 474
23:40:46 10 994 0 0 W 0 96.6 469
23:43:46 10 995 0 0 SW 0 96.6 466
23:46:46 10 995 0 0 N 0 96.6 468
23:49:47 10 995 0 0 NO 0 96.6 466
23:52:46 10 995 0 0 S 0 96.6 475
23:55:49 10 995 0 0 SW 0 96.6 480
23:58:45 10 995 0 0 S 0 96.6 477

Letzte Änderung : 22-Jul-2022
Copyright Jens Köhler, Wolfsburg, Obere Dorfstraße 10d